Location: Newark
(15.4608°S, 41.1635°W)
Time: 08:32:28
(UTC+00:00)

Transit 4A - Pass Details

Date: 09 March 2021
Orbit: 869 x 975 km, 66.8° (Epoch: 22 April)

Event Time Altitude Azimuth Distance (km) Brightness Sun altitude
Rises 09:55:56 0° 206° (SSW) 3,639 10.7 15.8°
Reaches altitude 10° 09:58:30 10° 208° (SSW) 2,701 10.1 16.4°
Maximum altitude 10:04:46 66° 289° (WNW) 1,051 8.3 17.9°
Drops below altitude 10° 10:11:04 10° 11° (N) 2,710 10.5 19.4°
Sets 10:13:38 0° 13° (NNE) 3,651 11.2 20.0°
